Regional Weather Roundup
Issued by NWS

Home | Current Version | Previous Version | Text Only | Print | Product List | Glossary Off
Versions: 1 2 3 4 5 6 7 8 9 10 11 12 13 14 15 16 17 18 19 20 21 22 23 24 25 26 27 28 29 30 31 32 33 34 35 36 37 38 39 40 41 42 43 44 45 46 47 48 49 50

000
ASUS45 KCYS 210810
RWRWY

WYOMING REGIONAL WEATHER ROUNDUP
NATIONAL WEATHER SERVICE CHEYENNE WY
100 AM MST SAT JAN 21 2017

NOTE:  "FAIR" INDICATES FEW OR NO CLOUDS BELOW 12,000 FEET
WITH NO SIGNIFICANT WEATHER AND/OR OBSTRUCTIONS TO VISIBILITY.

WYZ001-210900-
YELLOWSTONE NATIONAL PARK

CITY           SKY/WX    TMP DP  RH WIND       PRES   REMARKS
LK YELLOWSTONE   N/A      1  -1  91 CALM      29.34F
W YELLOWSTONE  NOT AVBL

$$
WYZ002>013-054>058-071-098>099-210900-
NORTHERN WYOMING

CITY           SKY/WX    TMP DP  RH WIND       PRES   REMARKS
JACKSON        CLOUDY    16  14  93 N7        29.34F WCI   6
CODY           FAIR      24  12  60 W7        29.34F WCI  16
GREYBULL       FOG       11   9  92 SE3       29.39S VSB 1/4
WORLAND        FAIR       8   6  92 SW6       29.37F WCI  -2
SHERIDAN       FAIR      19  16  88 VRB5      29.35S WCI  12
BUFFALO        FAIR      32  21  64 SW5       29.34F WCI  27
GILLETTE       FAIR      22  21  96 SE3       29.35F
HULETT         CLOUDY    32  32 100 MISG      29.36F
NEWCASTLE      CLOUDY    32  32 100 NW8       29.38R WCI  25

$$
WYZ014>020-022>026-101>103-210900-
CENTRAL WYOMING

CITY           SKY/WX    TMP DP  RH WIND       PRES   REMARKS
BIG PINEY      LGT SNOW   8   5  87 NE3       29.37F FOG
PINEDALE       CLOUDY     7   5  92 NW6       29.37F FOG     WCI  -3
DUBOIS         NOT AVBL
LANDER         FAIR      18  14  84 NW5       29.34F WCI  11
RIVERTON       MOCLDY    15  12  88 NE5       29.35F WCI   8
CASPER         FAIR      26  17  68 SW13      29.36F WCI  15
DOUGLAS        FAIR      19  15  84 CALM      29.38F

$$
WYZ021-027>030-104>119-210900-
SOUTHERN WYOMING

CITY           SKY/WX    TMP DP  RH WIND       PRES   REMARKS
EVANSTON       CLOUDY    13   9  84 E14       29.28F WCI  -2
ROCK SPRINGS   FAIR      20  14  77 SE7       29.33F WCI  11
RAWLINS        FAIR      14   9  80 VRB3      29.37F
LARAMIE        FAIR      12   7  80 SE7       29.39F WCI   1
CHEYENNE       FAIR      24  16  71 SW9       29.40F WCI  14
TORRINGTON     FAIR      25  21  85 W5        29.39S WCI  19

$$



USA.gov is the U.S. government's official web portal to all federal, state and local government web resources and services.